| time (UTC) | temp C | wind direction | speed KPH | gust KPH | rain 1hr cm | rain 24hr cm | rain mn cm | humidity % | barometer mb |
| 20260510000205 | 29 | 109 | 0.0 | 3.2 | 0.00 | 0.00 | 0.00 | 63 | 1008.5 |
| 20260509235702 | 30 | 110 | 1.6 | 3.2 | 0.00 | 0.00 | 0.00 | 62 | 1008.6 |
| 20260509235158 | 30 | 87 | 0.0 | 3.2 | 0.00 | 0.00 | 0.00 | 62 | 1008.5 |
| 20260509234654 | 30 | 130 | 3.2 | 3.2 | 0.00 | 0.00 | 0.00 | 63 | 1008.4 |
| 20260509234152 | 30 | 89 | 0.0 | 3.2 | 0.00 | 0.00 | 0.00 | 62 | 1008.5 |
| 20260509233650 | 30 | 87 | 0.0 | 1.6 | 0.00 | 0.00 | 0.00 | 63 | 1008.4 |
| 20260509233147 | 30 | 111 | 1.6 | 3.2 | 0.00 | 0.00 | 0.00 | 63 | 1008.6 |
| 20260509232643 | 30 | 68 | 0.0 | 3.2 | 0.00 | 0.00 | 0.00 | 62 | 1008.4 |
| 20260509232140 | 30 | 40 | 0.0 | 3.2 | 0.00 | 0.00 | 0.00 | 62 | 1008.4 |
| 20260509231636 | 30 | 100 | 1.6 | 3.2 | 0.00 | 0.00 | 0.00 | 62 | 1008.6 |
| 20260509231134 | 30 | 67 | 1.6 | 4.8 | 0.00 | 0.00 | 0.00 | 61 | 1008.5 |
| 20260509230631 | 30 | 91 | 1.6 | 3.2 | 0.00 | 0.00 | 0.00 | 61 | 1008.4 |
| 20260509230128 | 30 | 135 | 0.0 | 3.2 | 0.00 | 0.00 | 0.00 | 62 | 1008.0 |
| 20260509225624 | 30 | 98 | 1.6 | 3.2 | 0.00 | 0.00 | 0.00 | 61 | 1008.2 |
| 20260509225119 | 30 | 83 | 0.0 | 1.6 | 0.00 | 0.00 | 0.00 | 60 | 1008.4 |
| 20260509224614 | 30 | 37 | 0.0 | 3.2 | 0.00 | 0.00 | 0.00 | 61 | 1008.2 |
| 20260509224112 | 30 | 87 | 1.6 | 3.2 | 0.00 | 0.00 | 0.00 | 60 | 1008.4 |
| 20260509223609 | 31 | 123 | 3.2 | 6.4 | 0.00 | 0.00 | 0.00 | 59 | 1008.4 |
| 20260509223107 | 31 | 96 | 0.0 | 3.2 | 0.00 | 0.00 | 0.00 | 59 | 1008.4 |
| 20260509222602 | 31 | 110 | 3.2 | 3.2 | 0.00 | 0.00 | 0.00 | 57 | 1008.0 |
| 20260509222058 | 31 | 73 | 1.6 | 1.6 | 0.00 | 0.00 | 0.00 | 59 | 1008.0 |
| 20260509221554 | 31 | 88 | 3.2 | 4.8 | 0.00 | 0.00 | 0.00 | 57 | 1007.9 |
| 20260509221050 | 32 | 77 | 4.8 | 6.4 | 0.00 | 0.00 | 0.00 | 56 | 1008.1 |
| 20260509220546 | 32 | 130 | 3.2 | 6.4 | 0.00 | 0.00 | 0.00 | 55 | 1008.0 |
| 20260509220043 | 32 | 113 | 0.0 | 3.2 | 0.00 | 0.00 | 0.00 | 56 | 1007.9 |
| 20260509215538 | 32 | 99 | 1.6 | 4.8 | 0.00 | 0.00 | 0.00 | 56 | 1008.0 |
| 20260509215036 | 31 | 124 | 0.0 | 4.8 | 0.00 | 0.00 | 0.00 | 55 | 1008.1 |
| 20260509214533 | 31 | 129 | 3.2 | 4.8 | 0.00 | 0.00 | 0.00 | 56 | 1008.1 |
| 20260509214029 | 32 | 177 | 3.2 | 9.7 | 0.00 | 0.00 | 0.00 | 57 | 1008.1 |
| 20260509213526 | 32 | 71 | 0.0 | 3.2 | 0.00 | 0.00 | 0.00 | 55 | 1007.9 |
| 20260509213022 | 32 | 333 | 1.6 | 1.6 | 0.00 | 0.00 | 0.00 | 53 | 1007.9 |
| 20260509212520 | 33 | 76 | 4.8 | 4.8 | 0.00 | 0.00 | 0.00 | 51 | 1008.1 |
| 20260509212017 | 32 | 243 | 0.0 | 1.6 | 0.00 | 0.00 | 0.00 | 54 | 1008.0 |
| 20260509211512 | 32 | 293 | 0.0 | 3.2 | 0.00 | 0.00 | 0.00 | 55 | 1008.1 |
| 20260509211009 | 33 | 332 | 0.0 | 3.2 | 0.00 | 0.00 | 0.00 | 52 | 1008.4 |
| 20260509210506 | 33 | 35 | 1.6 | 4.8 | 0.00 | 0.00 | 0.00 | 52 | 1008.4 |
| 20260509210002 | 33 | 260 | 0.0 | 3.2 | 0.00 | 0.00 | 0.00 | 55 | 1008.2 |
| 20260509205456 | 33 | 32 | 3.2 | 3.2 | 0.00 | 0.00 | 0.00 | 53 | 1008.2 |
| 20260509204952 | 33 | 299 | 0.0 | 3.2 | 0.00 | 0.00 | 0.00 | 53 | 1008.4 |
| 20260509204449 | 32 | 152 | 0.0 | 3.2 | 0.00 | 0.00 | 0.00 | 59 | 1008.4 |
| 20260509203945 | 32 | 181 | 1.6 | 3.2 | 0.00 | 0.00 | 0.00 | 54 | 1008.5 |
| 20260509203441 | 32 | 248 | 1.6 | 3.2 | 0.00 | 0.00 | 0.00 | 55 | 1008.5 |
| 20260509202939 | 32 | 42 | 0.0 | 4.8 | 0.00 | 0.00 | 0.00 | 53 | 1008.7 |
| 20260509202435 | 32 | 279 | 3.2 | 3.2 | 0.00 | 0.00 | 0.00 | 59 | 1008.8 |
| 20260509201930 | 32 | 235 | 0.0 | 6.4 | 0.00 | 0.00 | 0.00 | 59 | 1008.8 |
| 20260509201425 | 32 | 127 | 3.2 | 3.2 | 0.00 | 0.00 | 0.00 | 58 | 1008.8 |
| 20260509200922 | 31 | 124 | 1.6 | 3.2 | 0.00 | 0.00 | 0.00 | 61 | 1008.8 |
| 20260509200422 | 31 | 312 | 0.0 | 3.2 | 0.00 | 0.00 | 0.00 | 61 | 1009.1 |
| 20260509195919 | 31 | 339 | 1.6 | 3.2 | 0.00 | 0.00 | 0.00 | 60 | 1009.2 |
| 20260509195415 | 32 | 104 | 0.0 | 3.2 | 0.00 | 0.00 | 0.00 | 58 | 1009.3 |
| 20260509194914 | 32 | 76 | 0.0 | 4.8 | 0.00 | 0.00 | 0.00 | 61 | 1009.1 |
| 20260509194411 | 32 | 254 | 1.6 | 4.8 | 0.00 | 0.00 | 0.00 | 57 | 1009.5 |
| 20260509193907 | 31 | 12 | 1.6 | 3.2 | 0.00 | 0.00 | 0.00 | 62 | 1009.4 |
| 20260509193407 | 31 | 315 | 1.6 | 3.2 | 0.00 | 0.00 | 0.00 | 62 | 1009.6 |
| 20260509192903 | 31 | 22 | 0.0 | 3.2 | 0.00 | 0.00 | 0.00 | 60 | 1009.6 |
| 20260509192400 | 31 | 262 | 0.0 | 3.2 | 0.00 | 0.00 | 0.00 | 61 | 1009.7 |
| 20260509191855 | 31 | 315 | 0.0 | 3.2 | 0.00 | 0.00 | 0.00 | 61 | 1009.7 |
| 20260509191351 | 31 | 309 | 3.2 | 4.8 | 0.00 | 0.00 | 0.00 | 62 | 1009.7 |
| 20260509190847 | 30 | 44 | 1.6 | 3.2 | 0.00 | 0.00 | 0.00 | 66 | 1009.7 |
| 20260509190344 | 31 | 205 | 0.0 | 3.2 | 0.00 | 0.00 | 0.00 | 64 | 1009.7 |
| 20260509185842 | 30 | 329 | 3.2 | 3.2 | 0.00 | 0.00 | 0.00 | 63 | 1009.7 |
| 20260509185338 | 30 | 209 | 0.0 | 1.6 | 0.00 | 0.00 | 0.00 | 64 | 1009.7 |
| 20260509184836 | 30 | 104 | 0.0 | 4.8 | 0.00 | 0.00 | 0.00 | 68 | 1010.1 |
| 20260509184332 | 30 | 124 | 0.0 | 1.6 | 0.00 | 0.00 | 0.00 | 67 | 1010.2 |
| 20260509183829 | 30 | 347 | 1.6 | 3.2 | 0.00 | 0.00 | 0.00 | 65 | 1010.2 |
| 20260509183324 | 30 | 293 | 1.6 | 3.2 | 0.00 | 0.00 | 0.00 | 66 | 1010.3 |
| 20260509182821 | 30 | 322 | 0.0 | 4.8 | 0.00 | 0.00 | 0.00 | 64 | 1010.2 |
| 20260509182318 | 30 | 158 | 1.6 | 4.8 | 0.00 | 0.00 | 0.00 | 64 | 1010.3 |
| 20260509181815 | 30 | 275 | 1.6 | 3.2 | 0.00 | 0.00 | 0.00 | 68 | 1010.3 |
| 20260509181312 | 29 | 307 | 3.2 | 3.2 | 0.00 | 0.00 | 0.00 | 68 | 1010.4 |
| 20260509180810 | 29 | 306 | 0.0 | 4.8 | 0.00 | 0.00 | 0.00 | 69 | 1010.4 |
| 20260509180305 | 28 | 215 | 8.0 | 11.3 | 0.00 | 0.00 | 0.00 | 67 | 1010.5 |
| 20260509175802 | 28 | 194 | 1.6 | 3.2 | 0.00 | 0.00 | 0.00 | 69 | 1010.7 |
| 20260509175259 | 28 | 142 | 0.0 | 6.4 | 0.00 | 0.00 | 0.00 | 68 | 1010.8 |
| 20260509174754 | 28 | 299 | 0.0 | 3.2 | 0.00 | 0.00 | 0.00 | 70 | 1010.8 |
| 20260509174249 | 28 | 125 | 0.0 | 1.6 | 0.00 | 0.00 | 0.00 | 69 | 1010.9 |
| 20260509173746 | 29 | 202 | 0.0 | 1.6 | 0.00 | 0.00 | 0.00 | 68 | 1010.9 |
| 20260509173242 | 30 | 330 | 1.6 | 4.8 | 0.00 | 0.00 | 0.00 | 66 | 1010.9 |
| 20260509172738 | 29 | 129 | 1.6 | 3.2 | 0.00 | 0.00 | 0.00 | 70 | 1010.9 |
| 20260509172235 | 28 | 149 | 3.2 | 4.8 | 0.00 | 0.00 | 0.00 | 72 | 1010.8 |
| 20260509171730 | 29 | 304 | 0.0 | 4.8 | 0.00 | 0.00 | 0.00 | 70 | 1010.9 |
| 20260509171227 | 29 | 129 | 3.2 | 4.8 | 0.00 | 0.00 | 0.00 | 71 | 1010.6 |
| 20260509170724 | 29 | 69 | 3.2 | 4.8 | 0.00 | 0.00 | 0.00 | 71 | 1010.6 |
| 20260509170220 | 28 | 310 | 0.0 | 4.8 | 0.00 | 0.00 | 0.00 | 75 | 1010.7 |
| 20260509165718 | 28 | 154 | 3.2 | 4.8 | 0.00 | 0.00 | 0.00 | 75 | 1010.6 |
| 20260509165214 | 27 | 84 | 0.0 | 3.2 | 0.00 | 0.00 | 0.00 | 78 | 1010.8 |
| 20260509164710 | 27 | 135 | 3.2 | 4.8 | 0.00 | 0.00 | 0.00 | 77 | 1010.6 |
| 20260509164206 | 27 | 187 | 1.6 | 3.2 | 0.00 | 0.00 | 0.00 | 77 | 1010.7 |
| 20260509163703 | 27 | 72 | 1.6 | 3.2 | 0.00 | 0.00 | 0.00 | 77 | 1010.9 |
| 20260509163200 | 27 | 25 | 0.0 | 1.6 | 0.00 | 0.00 | 0.00 | 77 | 1010.7 |
| 20260509162657 | 26 | 134 | 0.0 | 3.2 | 0.00 | 0.00 | 0.00 | 78 | 1011.0 |
| 20260509162152 | 27 | 329 | 0.0 | 0.0 | 0.00 | 0.00 | 0.00 | 79 | 1010.9 |
| 20260509161649 | 26 | 52 | 0.0 | 0.0 | 0.00 | 0.00 | 0.00 | 80 | 1011.0 |
| 20260509161144 | 26 | 89 | 0.0 | 3.2 | 0.00 | 0.00 | 0.00 | 80 | 1010.9 |
| 20260509160640 | 26 | 164 | 0.0 | 3.2 | 0.00 | 0.00 | 0.00 | 81 | 1011.0 |
| 20260509160135 | 26 | 288 | 1.6 | 1.6 | 0.00 | 0.00 | 0.00 | 81 | 1011.1 |
| 20260509155632 | 26 | 235 | 0.0 | 4.8 | 0.00 | 0.00 | 0.00 | 82 | 1010.9 |
| 20260509155128 | 26 | 164 | 0.0 | 3.2 | 0.00 | 0.00 | 0.00 | 81 | 1011.3 |
| 20260509154624 | 26 | 66 | 0.0 | 3.2 | 0.00 | 0.00 | 0.00 | 84 | 1011.3 |
| 20260509154121 | 26 | 108 | 3.2 | 3.2 | 0.00 | 0.00 | 0.00 | 84 | 1011.4 |
| 20260509153618 | 26 | 119 | 0.0 | 3.2 | 0.00 | 0.00 | 0.00 | 84 | 1011.2 |
| 20260509153115 | 25 | 83 | 1.6 | 1.6 | 0.00 | 0.00 | 0.00 | 86 | 1011.4 |
| 20260509152611 | 25 | 128 | 0.0 | 3.2 | 0.00 | 0.00 | 0.00 | 86 | 1011.3 |
| 20260509152109 | 25 | 89 | 0.0 | 3.2 | 0.00 | 0.00 | 0.00 | 87 | 1011.2 |
| 20260509151604 | 25 | 137 | 0.0 | 3.2 | 0.00 | 0.00 | 0.00 | 87 | 1011.4 |
| 20260509151103 | 25 | 95 | 3.2 | 3.2 | 0.00 | 0.00 | 0.00 | 87 | 1011.3 |
| 20260509150600 | 25 | 38 | 0.0 | 1.6 | 0.00 | 0.00 | 0.00 | 88 | 1011.2 |
| 20260509150058 | 25 | 72 | 0.0 | 3.2 | 0.00 | 0.00 | 0.00 | 89 | 1011.2 |
| 20260509145553 | 25 | 117 | 0.0 | 3.2 | 0.00 | 0.00 | 0.00 | 89 | 1011.1 |
| 20260509145049 | 24 | 82 | 0.0 | 1.6 | 0.00 | 0.00 | 0.00 | 90 | 1011.0 |
| 20260509144546 | 24 | 68 | 1.6 | 3.2 | 0.00 | 0.00 | 0.00 | 91 | 1011.1 |
| 20260509144043 | 24 | 73 | 1.6 | 3.2 | 0.00 | 0.00 | 0.00 | 92 | 1011.0 |
| 20260509143540 | 23 | 103 | 0.0 | 3.2 | 0.00 | 0.00 | 0.00 | 92 | 1011.0 |
| 20260509143038 | 23 | 99 | 1.6 | 1.6 | 0.00 | 0.00 | 0.00 | 92 | 1010.8 |
| 20260509142539 | 23 | 118 | 3.2 | 3.2 | 0.00 | 0.00 | 0.00 | 92 | 1010.6 |
| 20260509142035 | 23 | 118 | 1.6 | 1.6 | 0.00 | 0.00 | 0.00 | 92 | 1010.7 |
| 20260509141531 | 23 | 77 | 3.2 | 3.2 | 0.00 | 0.00 | 0.00 | 93 | 1010.6 |
| 20260509141028 | 23 | 132 | 0.0 | 1.6 | 0.00 | 0.00 | 0.00 | 93 | 1010.3 |
| 20260509140525 | 23 | 80 | 0.0 | 3.2 | 0.00 | 0.00 | 0.00 | 93 | 1010.5 |
| 20260509140023 | 23 | 59 | 0.0 | 3.2 | 0.00 | 0.00 | 0.00 | 93 | 1010.6 |
| 20260509135520 | 23 | 75 | 0.0 | 3.2 | 0.00 | 0.00 | 0.00 | 94 | 1010.4 |
| 20260509135017 | 23 | 83 | 3.2 | 3.2 | 0.00 | 0.00 | 0.00 | 94 | 1010.9 |
| 20260509134514 | 23 | 111 | 0.0 | 1.6 | 0.00 | 0.00 | 0.00 | 95 | 1010.9 |
| 20260509134012 | 23 | 67 | 1.6 | 3.2 | 0.00 | 0.00 | 0.00 | 95 | 1010.9 |
| 20260509133508 | 23 | 101 | 3.2 | 3.2 | 0.00 | 0.00 | 0.00 | 96 | 1010.9 |
| 20260509133007 | 23 | 89 | 0.0 | 1.6 | 0.00 | 0.00 | 0.00 | 96 | 1011.0 |
| 20260509132505 | 23 | 55 | 0.0 | 1.6 | 0.00 | 0.00 | 0.00 | 96 | 1011.1 |
| 20260509132002 | 23 | 62 | 0.0 | 0.0 | 0.00 | 0.00 | 0.00 | 97 | 1011.2 |
| 20260509131458 | 23 | 85 | 1.6 | 1.6 | 0.00 | 0.00 | 0.00 | 97 | 1011.1 |
| 20260509130955 | 23 | 74 | 0.0 | 3.2 | 0.00 | 0.00 | 0.00 | 97 | 1011.0 |
| 20260509130450 | 23 | 87 | 0.0 | 3.2 | 0.00 | 0.00 | 0.00 | 97 | 1011.1 |
| 20260509125948 | 22 | 66 | 1.6 | 3.2 | 0.00 | 0.00 | 0.00 | 97 | 1011.1 |
| 20260509125444 | 22 | 99 | 3.2 | 3.2 | 0.00 | 0.00 | 0.00 | 97 | 1011.2 |
| 20260509124940 | 22 | 130 | 0.0 | 1.6 | 0.00 | 0.00 | 0.00 | 98 | 1011.4 |
| 20260509124437 | 22 | 58 | 0.0 | 1.6 | 0.00 | 0.00 | 0.00 | 97 | 1011.0 |
| 20260509123934 | 22 | 117 | 0.0 | 3.2 | 0.00 | 0.00 | 0.00 | 97 | 1011.1 |
| 20260509123432 | 22 | 99 | 1.6 | 1.6 | 0.00 | 0.00 | 0.00 | 97 | 1011.2 |
| 20260509122928 | 22 | 89 | 0.0 | 1.6 | 0.00 | 0.00 | 0.00 | 97 | 1011.2 |
| 20260509122425 | 22 | 50 | 0.0 | 0.0 | 0.00 | 0.00 | 0.00 | 97 | 1011.2 |
| 20260509121921 | 22 | 66 | 0.0 | 1.6 | 0.00 | 0.00 | 0.00 | 97 | 1011.1 |
| 20260509121418 | 22 | 95 | 0.0 | 3.2 | 0.00 | 0.00 | 0.00 | 97 | 1011.0 |
| 20260509120916 | 22 | 101 | 1.6 | 1.6 | 0.00 | 0.00 | 0.00 | 97 | 1010.7 |
| 20260509120414 | 22 | 62 | 0.0 | 1.6 | 0.00 | 0.00 | 0.00 | 97 | 1010.3 |
| 20260509115912 | 22 | 103 | 0.0 | 1.6 | 0.00 | 0.00 | 0.00 | 97 | 1010.3 |
| 20260509115409 | 22 | 76 | 0.0 | 1.6 | 0.00 | 0.00 | 0.00 | 97 | 1010.5 |
| 20260509114906 | 22 | 83 | 0.0 | 1.6 | 0.00 | 0.00 | 0.00 | 97 | 1010.4 |
| 20260509114405 | 22 | 89 | 1.6 | 1.6 | 0.00 | 0.00 | 0.00 | 97 | 1010.1 |
| 20260509113904 | 22 | 162 | 0.0 | 3.2 | 0.00 | 0.00 | 0.00 | 97 | 1010.1 |
| 20260509113401 | 22 | 102 | 0.0 | 3.2 | 0.00 | 0.00 | 0.00 | 97 | 1010.2 |
| 20260509112857 | 22 | 124 | 1.6 | 3.2 | 0.00 | 0.00 | 0.00 | 97 | 1010.2 |
| 20260509112354 | 22 | 89 | 0.0 | 3.2 | 0.00 | 0.00 | 0.00 | 97 | 1010.2 |
| 20260509111852 | 22 | 89 | 0.0 | 1.6 | 0.00 | 0.00 | 0.00 | 97 | 1010.6 |
| 20260509111348 | 22 | 120 | 1.6 | 1.6 | 0.00 | 0.00 | 0.00 | 97 | 1010.6 |
| 20260509110846 | 22 | 89 | 0.0 | 0.0 | 0.00 | 0.00 | 0.00 | 97 | 1010.5 |
| 20260509110342 | 22 | 128 | 3.2 | 3.2 | 0.00 | 0.00 | 0.00 | 97 | 1010.6 |
| 20260509105841 | 22 | 80 | 0.0 | 1.6 | 0.00 | 0.00 | 0.00 | 97 | 1010.5 |
| 20260509105338 | 22 | 89 | 0.0 | 3.2 | 0.00 | 0.00 | 0.00 | 97 | 1010.7 |
| 20260509104835 | 22 | 50 | 1.6 | 3.2 | 0.00 | 0.00 | 0.00 | 97 | 1010.9 |
| 20260509104331 | 22 | 89 | 0.0 | 3.2 | 0.00 | 0.00 | 0.00 | 97 | 1011.0 |
| 20260509103829 | 22 | 60 | 1.6 | 3.2 | 0.00 | 0.00 | 0.00 | 97 | 1010.8 |
| 20260509103326 | 22 | 25 | 0.0 | 1.6 | 0.00 | 0.00 | 0.00 | 97 | 1010.7 |
| 20260509102825 | 22 | 62 | 0.0 | 1.6 | 0.00 | 0.00 | 0.00 | 97 | 1010.7 |
| 20260509102322 | 22 | 17 | 0.0 | 0.0 | 0.00 | 0.00 | 0.00 | 97 | 1010.4 |
| 20260509101818 | 22 | 55 | 0.0 | 3.2 | 0.00 | 0.00 | 0.00 | 97 | 1010.4 |
| 20260509101314 | 22 | 68 | 1.6 | 1.6 | 0.00 | 0.00 | 0.00 | 97 | 1010.1 |
| 20260509100812 | 22 | 89 | 0.0 | 1.6 | 0.00 | 0.00 | 0.00 | 97 | 1009.7 |
| 20260509100309 | 22 | 53 | 0.0 | 3.2 | 0.00 | 0.00 | 0.00 | 97 | 1009.6 |
| 20260509095805 | 22 | 81 | 1.6 | 1.6 | 0.00 | 0.00 | 0.00 | 97 | 1009.6 |
| 20260509095305 | 22 | 62 | 0.0 | 0.0 | 0.00 | 0.00 | 0.00 | 97 | 1009.6 |
| 20260509094800 | 22 | 108 | 0.0 | 1.6 | 0.00 | 0.00 | 0.00 | 97 | 1009.7 |
| 20260509094256 | 22 | 89 | 0.0 | 1.6 | 0.00 | 0.00 | 0.00 | 97 | 1009.7 |
| 20260509093754 | 22 | 89 | 0.0 | 1.6 | 0.00 | 0.00 | 0.00 | 97 | 1009.7 |
| 20260509093251 | 22 | 101 | 0.0 | 1.6 | 0.00 | 0.00 | 0.00 | 97 | 1009.9 |
| 20260509092750 | 22 | 66 | 0.0 | 0.0 | 0.00 | 0.00 | 0.00 | 97 | 1010.2 |
| 20260509092247 | 22 | 89 | 0.0 | 0.0 | 0.00 | 0.00 | 0.00 | 97 | 1010.4 |
| 20260509091745 | 22 | 129 | 0.0 | 1.6 | 0.00 | 0.00 | 0.00 | 97 | 1010.2 |
| 20260509091241 | 22 | 123 | 1.6 | 1.6 | 0.00 | 0.00 | 0.00 | 97 | 1010.1 |
| 20260509090739 | 22 | 111 | 0.0 | 1.6 | 0.00 | 0.00 | 0.00 | 97 | 1010.4 |
| 20260509090236 | 22 | 93 | 1.6 | 1.6 | 0.00 | 0.00 | 0.00 | 97 | 1010.4 |
| 20260509085734 | 22 | 89 | 0.0 | 1.6 | 0.00 | 0.00 | 0.00 | 97 | 1010.6 |
| 20260509085231 | 22 | 62 | 0.0 | 1.6 | 0.00 | 0.00 | 0.00 | 97 | 1010.4 |
| 20260509084727 | 22 | 50 | 0.0 | 1.6 | 0.00 | 0.00 | 0.00 | 97 | 1010.4 |
| 20260509084224 | 22 | 89 | 0.0 | 0.0 | 0.00 | 0.00 | 0.00 | 97 | 1010.1 |
| 20260509083722 | 22 | 50 | 0.0 | 1.6 | 0.00 | 0.00 | 0.00 | 97 | 1010.2 |
| 20260509083218 | 22 | 44 | 0.0 | 1.6 | 0.00 | 0.00 | 0.00 | 97 | 1010.4 |
| 20260509082715 | 22 | 77 | 0.0 | 0.0 | 0.00 | 0.00 | 0.00 | 97 | 1010.2 |
| 20260509082212 | 22 | 68 | 1.6 | 3.2 | 0.00 | 0.00 | 0.00 | 97 | 1010.1 |
| 20260509081708 | 22 | 89 | 0.0 | 1.6 | 0.00 | 0.00 | 0.00 | 97 | 1010.1 |
| 20260509081206 | 22 | 89 | 0.0 | 1.6 | 0.00 | 0.00 | 0.00 | 97 | 1010.2 |
| 20260509080704 | 22 | 62 | 0.0 | 1.6 | 0.00 | 0.00 | 0.00 | 97 | 1010.1 |
| 20260509080201 | 22 | 96 | 1.6 | 3.2 | 0.00 | 0.00 | 0.00 | 97 | 1010.0 |
| 20260509075659 | 22 | 99 | 1.6 | 3.2 | 0.00 | 0.00 | 0.00 | 97 | 1010.1 |
| 20260509075157 | 22 | 123 | 3.2 | 3.2 | 0.00 | 0.00 | 0.00 | 97 | 1010.2 |
| 20260509074653 | 22 | 80 | 3.2 | 3.2 | 0.00 | 0.00 | 0.00 | 97 | 1010.3 |
| 20260509074150 | 22 | 106 | 1.6 | 3.2 | 0.00 | 0.00 | 0.00 | 97 | 1010.2 |
| 20260509073647 | 22 | 127 | 3.2 | 3.2 | 0.00 | 0.00 | 0.00 | 96 | 1010.2 |
| 20260509073143 | 22 | 126 | 0.0 | 3.2 | 0.00 | 0.00 | 0.00 | 96 | 1010.3 |
| 20260509072641 | 22 | 76 | 3.2 | 3.2 | 0.00 | 0.00 | 0.00 | 96 | 1010.3 |
| 20260509072137 | 22 | 109 | 1.6 | 3.2 | 0.00 | 0.00 | 0.00 | 96 | 1010.3 |
| 20260509071633 | 22 | 122 | 1.6 | 3.2 | 0.00 | 0.00 | 0.00 | 96 | 1010.5 |
| 20260509071131 | 22 | 93 | 1.6 | 3.2 | 0.00 | 0.00 | 0.00 | 96 | 1010.3 |
| 20260509070628 | 22 | 86 | 1.6 | 3.2 | 0.00 | 0.00 | 0.00 | 96 | 1010.4 |
| 20260509070124 | 22 | 100 | 1.6 | 3.2 | 0.00 | 0.00 | 0.00 | 96 | 1010.7 |
| 20260509065620 | 22 | 89 | 1.6 | 1.6 | 0.00 | 0.00 | 0.00 | 96 | 1010.7 |
| 20260509065116 | 22 | 79 | 0.0 | 1.6 | 0.00 | 0.00 | 0.00 | 96 | 1010.6 |
| 20260509064614 | 22 | 85 | 1.6 | 1.6 | 0.00 | 0.00 | 0.00 | 96 | 1010.6 |
| 20260509064112 | 22 | 87 | 0.0 | 1.6 | 0.00 | 0.00 | 0.00 | 96 | 1010.4 |
| 20260509063608 | 22 | 105 | 1.6 | 3.2 | 0.00 | 0.00 | 0.00 | 96 | 1010.7 |
| 20260509063105 | 22 | 94 | 0.0 | 3.2 | 0.00 | 0.00 | 0.00 | 96 | 1010.5 |
| 20260509062602 | 22 | 62 | 0.0 | 3.2 | 0.00 | 0.00 | 0.00 | 96 | 1010.4 |
| 20260509062059 | 22 | 89 | 0.0 | 3.2 | 0.00 | 0.00 | 0.00 | 96 | 1010.6 |
| 20260509061555 | 22 | 122 | 1.6 | 3.2 | 0.00 | 0.00 | 0.00 | 96 | 1010.8 |
| 20260509061053 | 22 | 89 | 0.0 | 3.2 | 0.00 | 0.00 | 0.00 | 96 | 1010.8 |
| 20260509060551 | 22 | 50 | 0.0 | 1.6 | 0.00 | 0.00 | 0.00 | 96 | 1010.7 |
| 20260509060046 | 22 | 94 | 1.6 | 3.2 | 0.00 | 0.00 | 0.00 | 96 | 1010.7 |
| 20260509055542 | 22 | 89 | 1.6 | 3.2 | 0.00 | 0.00 | 0.00 | 96 | 1010.7 |
| 20260509055038 | 22 | 111 | 0.0 | 4.8 | 0.00 | 0.00 | 0.00 | 96 | 1010.7 |
| 20260509054535 | 22 | 87 | 1.6 | 3.2 | 0.00 | 0.00 | 0.00 | 96 | 1010.9 |
| 20260509054033 | 22 | 89 | 1.6 | 3.2 | 0.00 | 0.00 | 0.00 | 96 | 1011.0 |
| 20260509053531 | 22 | 112 | 3.2 | 3.2 | 0.00 | 0.00 | 0.00 | 96 | 1011.1 |
| 20260509053027 | 22 | 86 | 1.6 | 4.8 | 0.00 | 0.00 | 0.00 | 96 | 1011.0 |
| 20260509052525 | 22 | 96 | 1.6 | 3.2 | 0.00 | 0.00 | 0.00 | 96 | 1011.0 |
| 20260509052023 | 21 | 114 | 1.6 | 3.2 | 0.00 | 0.00 | 0.00 | 96 | 1011.0 |
| 20260509051521 | 21 | 89 | 1.6 | 3.2 | 0.00 | 0.00 | 0.00 | 96 | 1010.9 |
| 20260509051018 | 21 | 138 | 3.2 | 4.8 | 0.00 | 0.00 | 0.00 | 96 | 1010.6 |
| 20260509050514 | 21 | 74 | 3.2 | 6.4 | 0.00 | 0.00 | 0.00 | 96 | 1010.8 |
| 20260509050011 | 21 | 100 | 3.2 | 3.2 | 0.00 | 0.00 | 0.00 | 95 | 1010.9 |
| 20260509045508 | 21 | 120 | 1.6 | 3.2 | 0.00 | 0.00 | 0.00 | 95 | 1010.9 |
| 20260509045005 | 21 | 113 | 3.2 | 4.8 | 0.00 | 0.00 | 0.00 | 95 | 1011.2 |
| 20260509044503 | 21 | 102 | 3.2 | 4.8 | 0.00 | 0.00 | 0.00 | 95 | 1010.9 |
| 20260509044000 | 21 | 117 | 3.2 | 4.8 | 0.00 | 0.00 | 0.00 | 95 | 1011.0 |
| 20260509043455 | 21 | 103 | 0.0 | 3.2 | 0.00 | 0.00 | 0.00 | 95 | 1010.9 |
| 20260509042951 | 21 | 83 | 3.2 | 3.2 | 0.00 | 0.00 | 0.00 | 95 | 1010.8 |
| 20260509042449 | 21 | 93 | 3.2 | 9.7 | 0.00 | 0.00 | 0.00 | 95 | 1010.7 |
| 20260509041944 | 21 | 80 | 3.2 | 4.8 | 0.00 | 0.00 | 0.00 | 95 | 1010.8 |
| 20260509041442 | 21 | 60 | 1.6 | 6.4 | 0.00 | 0.00 | 0.00 | 95 | 1011.0 |
| 20260509040940 | 21 | 75 | 1.6 | 3.2 | 0.00 | 0.00 | 0.00 | 95 | 1010.9 |
| 20260509040438 | 21 | 97 | 1.6 | 3.2 | 0.00 | 0.00 | 0.00 | 95 | 1010.7 |
| 20260509035934 | 21 | 87 | 3.2 | 4.8 | 0.00 | 0.00 | 0.00 | 95 | 1010.8 |
| 20260509035431 | 21 | 84 | 1.6 | 6.4 | 0.00 | 0.00 | 0.00 | 95 | 1010.8 |
| 20260509034927 | 21 | 110 | 3.2 | 4.8 | 0.00 | 0.00 | 0.00 | 95 | 1010.7 |
| 20260509034425 | 21 | 80 | 3.2 | 4.8 | 0.00 | 0.00 | 0.00 | 95 | 1010.8 |
| 20260509033922 | 21 | 89 | 1.6 | 3.2 | 0.00 | 0.00 | 0.00 | 95 | 1010.7 |
| 20260509033419 | 21 | 83 | 3.2 | 3.2 | 0.00 | 0.00 | 0.00 | 95 | 1010.7 |
| 20260509032915 | 21 | 116 | 0.0 | 3.2 | 0.00 | 0.00 | 0.00 | 95 | 1010.7 |
| 20260509032413 | 21 | 98 | 0.0 | 4.8 | 0.00 | 0.00 | 0.00 | 95 | 1010.5 |
| 20260509031911 | 21 | 61 | 0.0 | 4.8 | 0.00 | 0.00 | 0.00 | 95 | 1010.5 |
| 20260509031408 | 21 | 98 | 3.2 | 6.4 | 0.00 | 0.00 | 0.00 | 95 | 1010.5 |
| 20260509030905 | 21 | 111 | 3.2 | 6.4 | 0.00 | 0.00 | 0.00 | 95 | 1010.6 |
| 20260509030404 | 21 | 98 | 3.2 | 4.8 | 0.00 | 0.00 | 0.00 | 95 | 1010.4 |
| 20260509025900 | 21 | 98 | 3.2 | 4.8 | 0.00 | 0.00 | 0.00 | 95 | 1010.5 |
| 20260509025355 | 21 | 92 | 3.2 | 6.4 | 0.00 | 0.00 | 0.00 | 95 | 1010.3 |
| 20260509024851 | 21 | 129 | 3.2 | 4.8 | 0.00 | 0.00 | 0.00 | 95 | 1010.2 |
| 20260509024347 | 21 | 73 | 3.2 | 4.8 | 0.00 | 0.00 | 0.00 | 95 | 1010.6 |
| 20260509023844 | 21 | 82 | 1.6 | 4.8 | 0.00 | 0.00 | 0.00 | 95 | 1010.4 |
| 20260509023342 | 21 | 147 | 4.8 | 6.4 | 0.00 | 0.00 | 0.00 | 95 | 1010.1 |
| 20260509022838 | 21 | 66 | 3.2 | 4.8 | 0.00 | 0.00 | 0.00 | 95 | 1010.1 |
| 20260509022336 | 21 | 109 | 3.2 | 4.8 | 0.00 | 0.00 | 0.00 | 95 | 1009.8 |
| 20260509021832 | 21 | 111 | 4.8 | 4.8 | 0.00 | 0.00 | 0.00 | 95 | 1010.1 |
| 20260509021329 | 21 | 103 | 1.6 | 6.4 | 0.00 | 0.00 | 0.00 | 95 | 1010.0 |
| 20260509020827 | 21 | 81 | 1.6 | 6.4 | 0.00 | 0.00 | 0.00 | 95 | 1010.1 |
| 20260509020325 | 21 | 94 | 1.6 | 4.8 | 0.00 | 0.00 | 0.00 | 95 | 1010.3 |
| 20260509015822 | 21 | 85 | 3.2 | 8.0 | 0.00 | 0.00 | 0.00 | 95 | 1010.1 |
| 20260509015320 | 21 | 83 | 3.2 | 4.8 | 0.00 | 0.00 | 0.00 | 95 | 1009.9 |
| 20260509014816 | 21 | 103 | 0.0 | 4.8 | 0.00 | 0.00 | 0.00 | 95 | 1010.1 |
| 20260509014314 | 21 | 60 | 3.2 | 6.4 | 0.00 | 0.00 | 0.00 | 95 | 1010.0 |
| 20260509013810 | 21 | 93 | 3.2 | 4.8 | 0.00 | 0.00 | 0.00 | 95 | 1010.4 |
| 20260509013307 | 21 | 74 | 4.8 | 8.0 | 0.00 | 0.00 | 0.00 | 95 | 1010.0 |
| 20260509012803 | 21 | 97 | 3.2 | 4.8 | 0.00 | 0.00 | 0.00 | 95 | 1010.0 |
| 20260509012300 | 22 | 83 | 1.6 | 8.0 | 0.00 | 0.00 | 0.00 | 94 | 1009.9 |
| 20260509011757 | 22 | 112 | 1.6 | 4.8 | 0.00 | 0.00 | 0.00 | 94 | 1009.8 |
| 20260509011254 | 22 | 83 | 6.4 | 11.3 | 0.00 | 0.00 | 0.00 | 94 | 1009.9 |
| 20260509010752 | 22 | 87 | 3.2 | 4.8 | 0.00 | 0.00 | 0.00 | 94 | 1009.8 |
| 20260509010248 | 22 | 121 | 3.2 | 4.8 | 0.00 | 0.00 | 0.00 | 94 | 1009.6 |
| 20260509005746 | 22 | 85 | 3.2 | 4.8 | 0.00 | 0.00 | 0.00 | 94 | 1009.6 |
| 20260509005244 | 22 | 107 | 3.2 | 8.0 | 0.00 | 0.00 | 0.00 | 94 | 1009.5 |
| 20260509004743 | 22 | 85 | 4.8 | 6.4 | 0.00 | 0.00 | 0.00 | 94 | 1009.6 |
| 20260509004241 | 22 | 87 | 4.8 | 6.4 | 0.00 | 0.00 | 0.00 | 94 | 1009.5 |
| 20260509003739 | 22 | 120 | 3.2 | 4.8 | 0.00 | 0.00 | 0.00 | 94 | 1009.7 |
| 20260509003236 | 22 | 128 | 1.6 | 4.8 | 0.00 | 0.00 | 0.00 | 94 | 1009.8 |
| 20260509002733 | 22 | 123 | 1.6 | 6.4 | 0.00 | 0.00 | 0.00 | 94 | 1009.7 |
| 20260509002231 | 22 | 89 | 4.8 | 4.8 | 0.00 | 0.00 | 0.00 | 94 | 1009.9 |
| 20260509001728 | 22 | 82 | 3.2 | 4.8 | 0.00 | 0.00 | 0.00 | 94 | 1010.1 |
| 20260509001224 | 22 | 96 | 4.8 | 6.4 | 0.00 | 0.00 | 0.00 | 94 | 1009.9 |
| 20260509000722 | 22 | 41 | 1.6 | 3.2 | 0.00 | 0.00 | 0.00 | 93 | 1010.0 |